Year,Month,Day,Hour,Minute,Value (Times are PST for temperature in C)
2014,12,02,00,00,0.10
2014,12,02,00,01,0.10
2014,12,02,00,02,0.10
2014,12,02,00,03,0.10
2014,12,02,00,04,0.20
2014,12,02,00,05,0.20
2014,12,02,00,06,0.20
2014,12,02,00,07,0.20
2014,12,02,00,08,0.30
2014,12,02,00,09,0.30
2014,12,02,00,10,0.30
2014,12,02,00,11,0.30
2014,12,02,00,12,0.30
2014,12,02,00,13,0.30
2014,12,02,00,14,0.30
2014,12,02,00,15,0.20
2014,12,02,00,16,0.20
2014,12,02,00,17,0.10
2014,12,02,00,18,0.00
2014,12,02,00,19,-0.10
2014,12,02,00,20,-0.20
2014,12,02,00,21,-0.30
2014,12,02,00,22,-0.40
2014,12,02,00,23,-0.50
2014,12,02,00,24,-0.60
2014,12,02,00,25,-0.70
2014,12,02,00,26,-0.70
2014,12,02,00,27,-0.80
2014,12,02,00,28,-0.80
2014,12,02,00,29,-0.80
2014,12,02,00,30,-0.80
2014,12,02,00,31,-0.80
2014,12,02,00,32,-0.80
2014,12,02,00,33,-0.80
2014,12,02,00,34,-0.80
2014,12,02,00,35,-0.80
2014,12,02,00,36,-0.80
2014,12,02,00,37,-0.80
2014,12,02,08,35,1.40
2014,12,02,08,36,1.40
2014,12,02,08,37,1.40
2014,12,02,08,38,1.30
2014,12,02,08,39,1.30
2014,12,02,08,40,1.20
2014,12,02,08,41,1.10
2014,12,02,08,42,1.00
2014,12,02,08,43,0.90
2014,12,02,08,44,0.80
2014,12,02,08,45,0.80
2014,12,02,08,46,0.80
2014,12,02,08,47,0.70
2014,12,02,08,48,0.70
2014,12,02,08,49,0.60
2014,12,02,08,50,0.60
2014,12,02,08,51,0.60
2014,12,02,08,52,0.60
2014,12,02,08,53,0.50
2014,12,02,08,54,0.50
2014,12,02,08,55,0.50
2014,12,02,08,56,0.50
2014,12,02,08,57,0.50
2014,12,02,08,58,0.50
2014,12,02,08,59,0.50
2014,12,02,09,00,0.60
2014,12,02,09,01,0.60
2014,12,02,09,02,0.60
2014,12,02,09,03,0.60
2014,12,02,09,04,0.70
2014,12,02,09,05,0.70
2014,12,02,09,06,0.70
2014,12,02,09,07,0.70
2014,12,02,09,08,0.70
2014,12,02,09,09,0.80
2014,12,02,09,10,0.80
2014,12,02,09,11,0.80
2014,12,02,09,12,0.80
2014,12,02,09,13,0.80
2014,12,02,09,14,0.80
2014,12,02,09,15,0.80
2014,12,02,09,16,0.80
2014,12,02,09,17,0.80
2014,12,02,09,18,0.80
2014,12,02,09,19,0.80
2014,12,02,09,20,0.80
2014,12,02,09,21,0.80
2014,12,02,09,22,0.80
2014,12,02,09,23,0.80
2014,12,02,09,24,0.80
2014,12,02,09,25,0.80
2014,12,02,09,26,0.80
2014,12,02,09,27,0.80
2014,12,02,09,28,0.80
2014,12,02,09,29,0.80
2014,12,02,09,30,0.80
2014,12,02,09,31,0.80
2014,12,02,09,32,0.80
2014,12,02,09,33,0.80
2014,12,02,09,34,0.80
2014,12,02,09,35,0.80
2014,12,02,09,36,0.80
2014,12,02,09,37,0.80
2014,12,02,09,38,0.80
2014,12,02,09,39,0.80
2014,12,02,09,40,0.80
2014,12,02,09,41,0.80
2014,12,02,09,42,0.80
2014,12,02,09,43,0.80
2014,12,02,09,44,0.80
2014,12,02,09,45,0.90
2014,12,02,09,46,0.90
2014,12,02,09,47,0.90
2014,12,02,09,48,0.90
2014,12,02,09,49,0.90
2014,12,02,09,50,0.90
2014,12,02,09,51,0.90
2014,12,02,09,52,0.90
2014,12,02,09,53,0.90
2014,12,02,09,54,0.90
2014,12,02,09,55,0.90
2014,12,02,09,56,0.90
2014,12,02,09,57,0.90
2014,12,02,09,58,1.00
2014,12,02,09,59,0.90
2014,12,02,10,00,1.00
2014,12,02,10,01,1.00
2014,12,02,10,02,1.00
2014,12,02,10,03,1.00
2014,12,02,10,04,1.00
2014,12,02,10,05,1.00
2014,12,02,10,06,1.00
2014,12,02,10,07,1.00
2014,12,02,10,08,1.10
2014,12,02,10,09,1.10
2014,12,02,10,10,1.10
2014,12,02,10,11,1.10
2014,12,02,10,12,1.10
2014,12,02,10,13,1.10
2014,12,02,10,14,1.10
2014,12,02,10,15,1.20
2014,12,02,10,16,1.20
2014,12,02,10,17,1.20
2014,12,02,10,18,1.20
2014,12,02,10,19,1.20
2014,12,02,10,20,1.20
2014,12,02,10,21,1.30
2014,12,02,10,22,1.30
2014,12,02,10,23,1.30
2014,12,02,10,24,1.30
2014,12,02,10,25,1.30
2014,12,02,10,26,1.30
2014,12,02,10,27,1.40
2014,12,02,10,28,1.40
2014,12,02,10,29,1.40
2014,12,02,10,30,1.40
2014,12,02,10,31,1.40
2014,12,02,10,32,1.40
2014,12,02,10,33,1.40
2014,12,02,10,34,1.40
2014,12,02,10,35,1.40
2014,12,02,10,36,1.40
2014,12,02,10,37,1.40
2014,12,02,10,38,1.50
2014,12,02,10,39,1.50
2014,12,02,10,40,1.50
2014,12,02,10,41,1.60
2014,12,02,10,42,1.60
2014,12,02,10,43,1.60
2014,12,02,10,44,1.60
2014,12,02,10,45,1.70
2014,12,02,10,46,1.70
2014,12,02,10,47,1.70
2014,12,02,10,48,1.80
2014,12,02,10,49,1.80
2014,12,02,10,50,1.80
2014,12,02,10,51,1.80
2014,12,02,10,52,1.80
2014,12,02,10,53,1.90
2014,12,02,10,54,1.90
2014,12,02,10,55,1.90
2014,12,02,10,56,1.90
2014,12,02,10,57,1.90
2014,12,02,10,58,1.90
2014,12,02,10,59,2.00
2014,12,02,11,00,2.00
2014,12,02,11,01,2.00
2014,12,02,11,02,2.10
2014,12,02,11,03,2.10
2014,12,02,11,04,2.10
2014,12,02,11,05,2.10
2014,12,02,11,06,2.20
2014,12,02,11,07,2.20
2014,12,02,11,08,2.30
2014,12,02,11,09,2.30
2014,12,02,11,10,2.40
2014,12,02,11,11,2.40
2014,12,02,11,12,2.50
2014,12,02,11,13,2.50
2014,12,02,11,14,2.60
2014,12,02,11,15,2.60
2014,12,02,11,16,2.60
2014,12,02,11,17,2.70
2014,12,02,11,18,2.70
2014,12,02,11,19,2.70
2014,12,02,11,20,2.70
2014,12,02,11,21,2.70
2014,12,02,11,22,2.80
2014,12,02,11,23,2.80
2014,12,02,11,24,2.80
2014,12,02,11,25,2.80
2014,12,02,11,26,2.80
2014,12,02,11,27,2.80
2014,12,02,11,28,2.80
2014,12,02,11,29,2.80
2014,12,02,11,30,2.90
2014,12,02,11,31,2.90
2014,12,02,11,32,3.00
2014,12,02,11,33,3.00
2014,12,02,11,34,3.00
2014,12,02,11,35,3.10
2014,12,02,11,36,3.10
2014,12,02,11,37,3.10
2014,12,02,11,38,3.10
2014,12,02,11,39,3.10
2014,12,02,11,40,3.10
2014,12,02,11,41,3.10
2014,12,02,11,42,3.10
2014,12,02,11,43,3.10
2014,12,02,11,44,3.10
2014,12,02,11,45,3.10
2014,12,02,11,46,3.10
2014,12,02,11,47,3.10
2014,12,02,11,48,3.10
2014,12,02,11,49,3.10
2014,12,02,11,50,3.20
2014,12,02,11,51,3.20
2014,12,02,11,52,3.20
2014,12,02,11,53,3.20
2014,12,02,11,54,3.20
2014,12,02,11,55,3.20
2014,12,02,11,56,3.20
2014,12,02,11,57,3.20
2014,12,02,11,58,3.20
2014,12,02,11,59,3.20
2014,12,02,12,00,3.20
2014,12,02,12,01,3.20
2014,12,02,12,02,3.20
2014,12,02,12,03,3.20
2014,12,02,12,04,3.20
2014,12,02,12,05,3.20
2014,12,02,12,06,3.20
2014,12,02,12,07,3.20
2014,12,02,12,08,3.20
2014,12,02,12,09,3.20
2014,12,02,12,10,3.30
2014,12,02,12,11,3.30
2014,12,02,12,12,3.30
2014,12,02,12,13,3.30
2014,12,02,12,14,3.30
2014,12,02,12,15,3.30
2014,12,02,12,16,3.30
2014,12,02,12,17,3.30
2014,12,02,12,18,3.30
2014,12,02,12,19,3.30
2014,12,02,12,20,3.30
2014,12,02,12,21,3.40
2014,12,02,12,22,3.40
2014,12,02,12,23,3.50
2014,12,02,12,24,3.50
2014,12,02,12,25,3.60
2014,12,02,12,26,3.60
2014,12,02,12,27,3.60
2014,12,02,12,28,3.60
2014,12,02,12,29,3.60
2014,12,02,12,30,3.60
2014,12,02,12,31,3.60
2014,12,02,12,32,3.70
2014,12,02,12,33,3.70
2014,12,02,12,34,3.70
2014,12,02,12,35,3.70
2014,12,02,12,36,3.70
2014,12,02,12,37,3.70
2014,12,02,12,38,3.70
2014,12,02,12,39,3.70
2014,12,02,12,40,3.60
2014,12,02,12,41,3.60
2014,12,02,12,42,3.60
2014,12,02,12,43,3.60
2014,12,02,12,44,3.60
2014,12,02,12,45,3.60
2014,12,02,12,46,3.70
2014,12,02,12,47,3.70
2014,12,02,12,48,3.70
2014,12,02,12,49,3.80
2014,12,02,12,50,3.80
2014,12,02,12,51,3.80
2014,12,02,12,52,3.90
2014,12,02,12,53,3.90
2014,12,02,12,54,3.90
2014,12,02,12,55,4.00
2014,12,02,12,56,4.00
2014,12,02,12,57,4.00
2014,12,02,12,58,4.10
2014,12,02,12,59,4.10
2014,12,02,13,00,4.10
2014,12,02,13,01,4.10
2014,12,02,13,02,4.10
2014,12,02,13,03,4.10
2014,12,02,13,04,4.10
2014,12,02,13,05,4.10
2014,12,02,13,06,4.10
2014,12,02,13,07,4.10
2014,12,02,13,08,4.10
2014,12,02,13,09,4.10
2014,12,02,13,10,4.10
2014,12,02,13,11,4.10
2014,12,02,13,12,4.10
2014,12,02,13,13,4.10
2014,12,02,13,14,4.10
2014,12,02,13,15,4.20
2014,12,02,13,16,4.20
2014,12,02,13,17,4.20
2014,12,02,13,18,4.20
2014,12,02,13,19,4.20
2014,12,02,13,20,4.20
2014,12,02,13,21,4.20
2014,12,02,13,22,4.30
2014,12,02,13,23,4.30
2014,12,02,13,24,4.30
2014,12,02,13,25,4.30
2014,12,02,13,26,4.30
2014,12,02,13,27,4.40
2014,12,02,13,28,4.40
2014,12,02,13,29,4.40
2014,12,02,13,30,4.40
2014,12,02,13,31,4.40
2014,12,02,13,32,4.40
2014,12,02,13,33,4.50
2014,12,02,13,34,4.50
2014,12,02,13,35,4.50
2014,12,02,13,36,4.50
2014,12,02,13,37,4.50
2014,12,02,13,38,4.40
2014,12,02,13,39,4.40
2014,12,02,13,40,4.50
2014,12,02,13,41,4.50
2014,12,02,13,42,4.50
2014,12,02,13,43,4.50
2014,12,02,13,44,4.60
2014,12,02,13,45,4.60
2014,12,02,13,46,4.60
2014,12,02,13,47,4.60
2014,12,02,13,48,4.60
2014,12,02,13,49,4.60
2014,12,02,13,50,4.60
2014,12,02,13,51,4.60
2014,12,02,13,52,4.60
2014,12,02,13,53,4.60
2014,12,02,13,54,4.60
2014,12,02,13,55,4.60
2014,12,02,13,56,4.60
2014,12,02,13,57,4.60
2014,12,02,13,58,4.60
2014,12,02,13,59,4.60
2014,12,02,14,00,4.60
2014,12,02,14,01,4.60
2014,12,02,14,02,4.60
2014,12,02,14,03,4.60
2014,12,02,14,04,4.60
2014,12,02,14,05,4.60
2014,12,02,14,06,4.60
2014,12,02,14,07,4.50
2014,12,02,14,08,4.50
2014,12,02,14,09,4.60
2014,12,02,14,10,4.60
2014,12,02,14,11,4.60
2014,12,02,14,12,4.60
2014,12,02,14,13,4.60
2014,12,02,14,14,4.50
2014,12,02,14,15,4.60
2014,12,02,14,16,4.50
2014,12,02,14,17,4.60
2014,12,02,14,18,4.60
2014,12,02,14,19,4.60
2014,12,02,14,20,4.60
2014,12,02,14,21,4.60
2014,12,02,14,22,4.60
2014,12,02,14,23,4.60
2014,12,02,14,24,4.60
2014,12,02,14,25,4.60
2014,12,02,14,26,4.60
2014,12,02,14,27,4.60
2014,12,02,14,28,4.60
2014,12,02,14,29,4.60
2014,12,02,14,30,4.60
2014,12,02,14,31,4.60
2014,12,02,14,32,4.60
2014,12,02,14,33,4.60
2014,12,02,14,34,4.60
2014,12,02,14,35,4.50
2014,12,02,14,36,4.50
2014,12,02,14,37,4.50
2014,12,02,14,38,4.50
2014,12,02,14,39,4.40
2014,12,02,14,40,4.40
2014,12,02,14,41,4.40
2014,12,02,14,42,4.40
2014,12,02,14,43,4.40
2014,12,02,14,44,4.30
2014,12,02,14,45,4.40
2014,12,02,14,46,4.40
2014,12,02,14,47,4.40
2014,12,02,14,48,4.40
2014,12,02,14,49,4.40
2014,12,02,14,50,4.40
2014,12,02,14,51,4.40
2014,12,02,14,52,4.40
2014,12,02,14,53,4.30
2014,12,02,14,54,4.30
2014,12,02,14,55,4.30
2014,12,02,14,56,4.30
2014,12,02,14,57,4.40
2014,12,02,14,58,4.40
2014,12,02,14,59,4.40
2014,12,02,15,00,4.30
2014,12,02,15,01,4.30
2014,12,02,15,02,4.30
2014,12,02,15,03,4.30
2014,12,02,15,04,4.30
2014,12,02,15,05,4.30
2014,12,02,15,06,4.30
2014,12,02,15,07,4.30
2014,12,02,15,08,4.30
2014,12,02,15,09,4.30
2014,12,02,15,10,4.30
2014,12,02,15,11,4.30
2014,12,02,15,12,4.30
2014,12,02,15,13,4.30
2014,12,02,15,14,4.30
2014,12,02,15,15,4.30
2014,12,02,15,16,4.30
2014,12,02,15,17,4.30
2014,12,02,15,18,4.30
2014,12,02,15,19,4.30
2014,12,02,15,20,4.30
2014,12,02,15,21,4.30
2014,12,02,15,22,4.20
2014,12,02,15,23,4.20
2014,12,02,15,24,4.20
2014,12,02,15,25,4.20
2014,12,02,15,26,4.20
2014,12,02,15,27,4.20
2014,12,02,15,28,4.20
2014,12,02,15,29,4.20
2014,12,02,15,30,4.20
2014,12,02,15,31,4.10
2014,12,02,15,32,4.10
2014,12,02,15,33,4.10
2014,12,02,15,34,4.10
2014,12,02,15,35,4.10
2014,12,02,15,36,4.00
2014,12,02,15,37,4.00
2014,12,02,15,38,4.00
2014,12,02,15,39,3.90
2014,12,02,15,40,3.90
2014,12,02,15,41,3.90
2014,12,02,15,42,3.90
2014,12,02,15,43,3.80
2014,12,02,15,44,3.80
2014,12,02,15,45,3.80
2014,12,02,15,46,3.80
2014,12,02,15,47,3.80
2014,12,02,15,48,3.80
2014,12,02,15,49,3.80
2014,12,02,15,50,3.70
2014,12,02,15,51,3.70
2014,12,02,15,52,3.70
2014,12,02,15,53,3.70
2014,12,02,15,54,3.70
2014,12,02,15,55,3.70
2014,12,02,15,56,3.70
2014,12,02,15,57,3.70
2014,12,02,15,58,3.70
2014,12,02,15,59,3.60
2014,12,02,16,00,3.60
2014,12,02,16,01,3.60
2014,12,02,16,02,3.60
2014,12,02,16,03,3.60
2014,12,02,16,04,3.50
2014,12,02,16,05,3.50
2014,12,02,16,06,3.50
2014,12,02,16,07,3.60
2014,12,02,16,08,3.60
2014,12,02,16,09,3.60
2014,12,02,16,10,3.60
2014,12,02,16,11,3.60
2014,12,02,16,12,3.60
2014,12,02,16,13,3.60
2014,12,02,16,14,3.60
2014,12,02,16,15,3.60
2014,12,02,16,16,3.50
2014,12,02,16,17,3.50
2014,12,02,16,18,3.50
2014,12,02,16,19,3.50
2014,12,02,16,20,3.50
2014,12,02,16,21,3.50
2014,12,02,16,22,3.40
2014,12,02,16,23,3.40
2014,12,02,16,24,3.40
2014,12,02,16,25,3.40
2014,12,02,16,26,3.40
2014,12,02,16,27,3.30
2014,12,02,16,28,3.30
2014,12,02,16,29,3.30
2014,12,02,16,30,3.30
2014,12,02,16,31,3.20
2014,12,02,16,32,3.20
2014,12,02,16,33,3.20
2014,12,02,16,34,3.20
2014,12,02,16,35,3.20
2014,12,02,16,36,3.20
2014,12,02,16,37,3.20
2014,12,02,16,38,3.10
2014,12,02,16,39,3.10
2014,12,02,16,40,3.20
2014,12,02,16,41,3.10
2014,12,02,16,42,3.10
2014,12,02,16,43,3.10
2014,12,02,16,44,3.10
2014,12,02,16,45,3.10
2014,12,02,16,46,3.10
2014,12,02,16,47,3.10
2014,12,02,16,48,3.10
2014,12,02,16,49,3.10
2014,12,02,16,50,3.10
2014,12,02,16,51,3.10
2014,12,02,16,52,3.10
2014,12,02,16,53,3.10
2014,12,02,16,54,3.10
2014,12,02,16,55,3.10
2014,12,02,16,56,3.10
2014,12,02,16,57,3.00
2014,12,02,16,58,3.00
2014,12,02,16,59,3.00
2014,12,02,17,00,2.90
2014,12,02,17,01,2.90
2014,12,02,17,02,2.90
2014,12,02,17,03,2.90
2014,12,02,17,04,2.90
2014,12,02,17,05,3.00
2014,12,02,17,06,3.00
2014,12,02,17,07,3.00
2014,12,02,17,08,3.00
2014,12,02,17,09,3.00
2014,12,02,17,10,3.00
2014,12,02,17,11,3.10
2014,12,02,17,12,3.10
2014,12,02,17,13,3.10
2014,12,02,17,14,3.10
2014,12,02,17,15,3.10
2014,12,02,17,16,3.10
2014,12,02,17,17,3.10
2014,12,02,17,18,3.10
2014,12,02,17,19,3.10
2014,12,02,17,20,3.10
2014,12,02,17,21,3.10
2014,12,02,17,22,3.10
2014,12,02,17,23,3.10
2014,12,02,17,24,3.10
2014,12,02,17,25,3.20
2014,12,02,17,26,3.20
2014,12,02,17,27,3.20
2014,12,02,17,28,3.20
2014,12,02,17,29,3.20
2014,12,02,17,30,3.20
2014,12,02,17,31,3.20
2014,12,02,17,32,3.20
2014,12,02,17,33,3.20
2014,12,02,17,34,3.20
2014,12,02,17,35,3.20
2014,12,02,17,36,3.10
2014,12,02,17,37,3.10
2014,12,02,17,38,3.10
2014,12,02,17,39,3.10
2014,12,02,17,40,3.10
2014,12,02,17,41,3.10
2014,12,02,17,42,3.00
2014,12,02,17,43,3.00
2014,12,02,17,44,3.00
2014,12,02,17,45,3.00
2014,12,02,17,46,2.90
2014,12,02,17,47,2.90
2014,12,02,17,48,2.90
2014,12,02,17,49,2.90
2014,12,02,17,50,2.90
2014,12,02,17,51,2.90
2014,12,02,17,52,2.90
2014,12,02,17,53,2.90
2014,12,02,17,54,2.90
2014,12,02,17,55,2.90
2014,12,02,17,56,2.90
2014,12,02,17,57,2.90
2014,12,02,17,58,2.90
2014,12,02,17,59,2.90
2014,12,02,18,00,2.90
2014,12,02,18,01,2.90
2014,12,02,18,02,2.90
2014,12,02,18,03,3.00
2014,12,02,18,04,3.00
2014,12,02,18,05,3.00
2014,12,02,18,06,3.10
2014,12,02,18,07,3.10
2014,12,02,18,08,3.10
2014,12,02,18,09,3.10
2014,12,02,18,10,3.10
2014,12,02,18,11,3.20
2014,12,02,18,12,3.20
2014,12,02,18,13,3.20
2014,12,02,18,14,3.20
2014,12,02,18,15,3.20
2014,12,02,18,16,3.20
2014,12,02,18,17,3.20
2014,12,02,18,18,3.20
2014,12,02,18,19,3.20
2014,12,02,18,20,3.20
2014,12,02,18,21,3.20
2014,12,02,18,22,3.20
2014,12,02,18,23,3.20
2014,12,02,18,24,3.20
2014,12,02,18,25,3.20
2014,12,02,18,26,3.20
2014,12,02,18,27,3.20
2014,12,02,18,28,3.20
2014,12,02,18,29,3.20
2014,12,02,18,30,3.20
2014,12,02,18,31,3.20
2014,12,02,18,32,3.20
2014,12,02,18,33,3.20
2014,12,02,18,34,3.20
2014,12,02,18,35,3.20
2014,12,02,18,36,3.20
2014,12,02,18,37,3.20
2014,12,02,18,38,3.20
2014,12,02,18,39,3.20
2014,12,02,18,40,3.20
2014,12,02,18,41,3.20
2014,12,02,18,42,3.20
2014,12,02,18,43,3.20
2014,12,02,18,44,3.20
2014,12,02,18,45,3.20
2014,12,02,18,46,3.20
2014,12,02,18,47,3.20
2014,12,02,18,48,3.20
2014,12,02,18,49,3.20
2014,12,02,18,50,3.20
2014,12,02,18,51,3.20
2014,12,02,18,52,3.20
2014,12,02,18,53,3.20
2014,12,02,18,54,3.20
2014,12,02,18,55,3.20
2014,12,02,18,56,3.20
2014,12,02,18,57,3.10
2014,12,02,18,58,3.10
2014,12,02,18,59,3.10
2014,12,02,19,00,3.10
2014,12,02,19,01,3.10
2014,12,02,19,02,3.10
2014,12,02,19,03,3.10
2014,12,02,19,04,3.10
2014,12,02,19,05,3.20
2014,12,02,19,06,3.20
2014,12,02,19,07,3.20
2014,12,02,19,08,3.20
2014,12,02,19,09,3.20
2014,12,02,19,10,3.20
2014,12,02,19,11,3.20
2014,12,02,19,12,3.20
2014,12,02,19,13,3.20
2014,12,02,19,14,3.20
2014,12,02,19,15,3.20
2014,12,02,19,16,3.20
2014,12,02,19,17,3.20
2014,12,02,19,18,3.10
2014,12,02,19,19,3.20
2014,12,02,19,20,3.20
2014,12,02,19,21,3.20
2014,12,02,19,22,3.20
2014,12,02,19,23,3.20
2014,12,02,19,24,3.20
2014,12,02,19,25,3.10
2014,12,02,19,26,3.10
2014,12,02,19,27,3.10
2014,12,02,19,28,3.10
2014,12,02,19,29,3.10
2014,12,02,19,30,3.10
2014,12,02,19,31,3.10
2014,12,02,19,32,3.10
2014,12,02,19,33,3.10
2014,12,02,19,34,3.10
2014,12,02,19,35,3.10
2014,12,02,19,36,3.10
2014,12,02,19,37,3.10
2014,12,02,19,38,3.10
2014,12,02,19,39,3.10
2014,12,02,19,40,3.10
2014,12,02,19,41,3.10
2014,12,02,19,42,3.10
2014,12,02,19,43,3.10
2014,12,02,19,44,3.10
2014,12,02,19,45,3.10
2014,12,02,19,46,3.10
2014,12,02,19,47,3.10
2014,12,02,19,48,3.10
2014,12,02,19,49,3.10
2014,12,02,19,50,3.10
2014,12,02,19,51,3.10
2014,12,02,19,52,3.10
2014,12,02,19,53,3.10
2014,12,02,19,54,3.10
2014,12,02,19,55,3.10
2014,12,02,19,56,3.10
2014,12,02,19,57,3.00
2014,12,02,19,58,3.00
2014,12,02,19,59,3.00
2014,12,02,20,00,2.90
2014,12,02,20,01,2.90
2014,12,02,20,02,2.90
2014,12,02,20,03,2.90
2014,12,02,20,04,2.90
2014,12,02,20,05,2.90
2014,12,02,20,06,2.80
2014,12,02,20,07,2.80
2014,12,02,20,08,2.80
2014,12,02,20,09,2.70
2014,12,02,20,10,2.70
2014,12,02,20,11,2.60
2014,12,02,20,12,2.50
2014,12,02,20,13,2.40
2014,12,02,20,14,2.30
2014,12,02,20,15,2.30
2014,12,02,20,16,2.30
2014,12,02,20,17,2.30
2014,12,02,20,18,2.30
2014,12,02,20,19,2.30
2014,12,02,20,20,2.30
2014,12,02,20,21,2.20
2014,12,02,20,22,2.20
2014,12,02,20,23,2.30
2014,12,02,20,24,2.30
2014,12,02,20,25,2.30
2014,12,02,20,26,2.30
2014,12,02,20,27,2.30
2014,12,02,20,28,2.30
2014,12,02,20,29,2.30
2014,12,02,20,30,2.20
2014,12,02,20,31,2.20
2014,12,02,20,32,2.10
2014,12,02,20,33,2.10
2014,12,02,20,34,2.00
2014,12,02,20,35,1.90
2014,12,02,20,36,1.80
2014,12,02,20,37,1.70
2014,12,02,20,38,1.70
2014,12,02,20,39,1.60
2014,12,02,20,40,1.60
2014,12,02,20,41,1.50
2014,12,02,20,42,1.40
2014,12,02,20,43,1.30
2014,12,02,20,44,1.20
2014,12,02,20,45,1.20
2014,12,02,20,46,1.20
2014,12,02,20,47,1.20
2014,12,02,20,48,1.20
2014,12,02,20,49,1.20
2014,12,02,20,50,1.20
2014,12,02,20,51,1.20
2014,12,02,20,52,1.20
2014,12,02,20,53,1.20
2014,12,02,20,54,1.20
